Location: Drouwen
(52.9559°N, 6.7974°E)
Time: 12:30:04
(UTC+00:00)

CZ-2C R/B - Pass Details

Date: 15 May 2026
Orbit: 630 x 690 km, 98.1° (Epoch: 7 June)

Event Time Altitude Azimuth Distance (km) Brightness Sun altitude
Rises 22:25:48 0° 17° (NNE) 2,960 8.0 -16.7°
Reaches altitude 10° 22:28:03 10° 22° (NNE) 2,053 7.0 -16.8°
Maximum altitude 22:32:27 56° 101° (E) 782 3.9 -17.0°
Enters shadow 22:34:16 33° 163° (SSE) 1,112 4.3 -17.0°
